This is the latest recevied weather packets stored in our database for station/object KC4LZN. If no packets are shown the sender has not sent any weather packets the latest 10 day(s).
| Time | Temp. | Humidity | Pressure | Rain* | Wind** | Luminosity | Snow |
|---|---|---|---|---|---|---|---|
| 1777916241 | 27.22° C | 41% | 1017.2 hPa | 0 mm | - | 794 W/m² | - |
| 1777915939 | 26.67° C | 41% | 1017.6 hPa | 0 mm | - | 916 W/m² | - |
| 1777915635 | 26.67° C | 44% | 1017.8 hPa | 0 mm | - | 879 W/m² | - |
| 1777915332 | 27.22° C | 44% | 1017.7 hPa | 0 mm | - | 880 W/m² | - |
| 1777915028 | 26.67° C | 43% | 1017.6 hPa | 0 mm | - | 648 W/m² | - |
| 1777914726 | 27.22° C | 43% | 1017.6 hPa | 0 mm | - | 898 W/m² | - |
| 1777914422 | 27.22° C | 43% | 1017.6 hPa | 0 mm | - | 938 W/m² | - |
| 1777914120 | 26.67° C | 45% | 1017.6 hPa | 0 mm | - | 885 W/m² | - |
| 1777913815 | 26.67° C | 44% | 1017.9 hPa | 0 mm | - | 889 W/m² | - |
| 1777913512 | 26.11° C | 42% | 1018.1 hPa | 0 mm | - | 861 W/m² | - |
| 1777913209 | 26.11° C | 42% | 1017.8 hPa | 0 mm | - | 881 W/m² | - |
| 1777912904 | 26.11° C | 41% | 1018.1 hPa | 0 mm | - | 874 W/m² | - |
| 1777912602 | 26.67° C | 42% | 1018.4 hPa | 0 mm | - | 858 W/m² | - |
| 1777912298 | 26.11° C | 41% | 1018.2 hPa | 0 mm | - | 862 W/m² | - |
| 1777911993 | 26.67° C | 42% | 1018.3 hPa | 0 mm | - | 862 W/m² | - |
| 1777911690 | 26.11° C | 42% | 1018.3 hPa | 0 mm | - | 856 W/m² | - |
| 1777911386 | 26.11° C | 43% | 1018.2 hPa | 0 mm | - | 851 W/m² | - |
| 1777911084 | 25° C | 42% | 1018.4 hPa | 0 mm | - | 843 W/m² | - |
| 1777910782 | 25.56° C | 39% | 1018.3 hPa | 0 mm | - | 836 W/m² | - |
| 1777910478 | 25.56° C | 40% | 1018.3 hPa | 0 mm | - | 830 W/m² | - |
| 1777910175 | 26.11° C | 38% | 1018.6 hPa | 0 mm | - | 821 W/m² | - |
| 1777909872 | 25.56° C | 41% | 1018.6 hPa | 0 mm | - | 815 W/m² | - |
| 1777909569 | 25.56° C | 40% | 1018.7 hPa | 0 mm | - | 805 W/m² | - |
| 1777909266 | 25° C | 41% | 1018.5 hPa | 0 mm | - | 796 W/m² | - |
| 1777908964 | 25° C | 42% | 1018.6 hPa | 0 mm | - | 786 W/m² | - |
* Rain latest hour (hover to see other rain measurements)
** Current wind speed in m/s (hover to see current wind gust speed)